CHINASAT 2A (ZX 2A)     
1 38352U 12028A   19261.07465340 -.00000297  00000-0  00000+0 0  9990
2 38352   0.0584 308.4738 0002009  66.2765 107.1228  1.00272038 26930
CZ-3B R/B               
1 38353U 12028B   19258.21420667  .00122119 -33535-6  73915-3 0  9998
2 38353  26.8498  93.0701 4336677 350.6984   3.3329  6.97428364135583